Date,TemperatureHighF,TemperatureAvgF,TemperatureLowF,DewpointHighF,DewpointAvgF,DewpointLowF,HumidityHigh,HumidityAvg,HumidityLow,PressureMaxIn,PressureMinIn,WindSpeedMaxMPH,WindSpeedAvgMPH,GustSpeedMaxMPH,PrecipitationSumIn
2013-1-30,64,61,55,56,52,50,85,73,64,29.43,29.09,13,5,26,0.05
2013-1-31,56,30,22,51,18,9,85,61,44,29.77,29.08,18,11,44,0.08
2013-2-1,24,21,19,17,14,9,89,74,59,30.28,29.77,13,7,27,0.01
2013-2-2,22,19,16,16,11,6,83,71,62,30.29,30.08,9,4,20,0.01
2013-2-3,26,20,14,17,14,11,90,79,59,30.08,29.89,9,2,19,0.00
2013-2-4,24,20,17,15,11,8,86,69,52,30.05,29.95,11,5,23,0.00
2013-2-5,27,22,17,18,15,12,88,74,61,30.07,29.94,5,1,11,0.00
2013-2-6,28,25,19,24,16,9,88,70,49,30.48,29.96,14,5,25,0.00
2013-2-7,30,24,17,23,14,9,88,68,55,30.54,30.20,7,2,15,0.00
2013-2-8,33,29,19,32,24,17,95,85,63,30.20,29.88,6,1,15,0.00
2013-2-9,22,19,16,18,16,12,92,88,82,30.52,30.16,2,0,7,0.00
2013-2-10,33,22,8,26,17,5,89,82,73,30.52,30.08,5,2,14,0.07
2013-2-11,51,38,33,41,31,26,88,76,67,30.08,29.63,21,8,50,0.31
2013-2-12,36,33,32,31,27,24,91,78,66,30.04,29.76,15,8,35,0.01
2013-2-13,39,32,27,26,24,23,85,73,56,30.00,29.82,5,2,11,0.00
2013-2-14,40,33,27,34,28,22,93,80,54,30.01,29.87,6,2,13,0.11
2013-2-15,39,35,26,35,25,16,93,66,48,30.14,29.85,15,8,34,0.11
2013-2-16,30,24,23,20,17,15,83,72,55,30.15,30.02,5,2,13,0.01
2013-2-17,23,17,13,19,12,6,90,80,68,30.28,30.00,13,5,26,0.00
2013-2-18,29,21,13,17,12,8,87,69,49,30.40,30.03,11,3,21,0.04
2013-2-19,45,34,27,36,25,16,90,70,56,30.03,29.62,15,6,34,0.12
2013-2-20,27,23,20,19,15,11,80,70,56,30.14,29.83,15,10,32,0.01
2013-2-21,23,18,14,18,14,9,87,80,75,30.52,30.12,13,6,26,0.00
2013-2-22,34,27,22,28,22,17,92,80,69,30.50,30.11,7,3,17,0.00
2013-2-23,39,34,32,32,29,24,91,81,73,30.12,29.96,7,3,16,0.08
2013-2-24,34,32,30,28,25,23,88,77,67,30.14,29.94,10,5,21,0.01
2013-2-25,37,34,31,29,28,26,85,78,66,30.33,30.13,7,3,14,0.01
2013-2-26,43,35,27,32,28,24,95,77,55,30.33,29.96,9,3,21,0.09
2013-2-27,35,33,32,34,32,30,96,95,93,29.96,29.65,6,2,13,0.68
2013-2-28,38,35,33,33,32,31,96,91,81,29.80,29.62,7,4,17,0.46
2013-3-1,33,31,28,32,26,22,95,85,77,30.02,29.81,10,3,20,0.04
2013-3-2,28,25,23,23,21,18,90,84,78,30.04,29.97,9,4,15,0.00
2013-3-3,25,24,22,22,19,16,91,82,71,29.99,29.95,8,4,19,0.00
2013-3-4,30,26,22,23,20,16,84,76,66,30.14,29.98,13,7,25,0.01
2013-3-5,32,28,26,25,22,20,87,79,70,30.19,30.08,8,2,17,0.03
2013-3-6,40,32,24,33,28,20,88,83,68,30.24,30.06,5,1,12,0.07
2013-3-7,36,34,32,33,30,24,92,84,69,30.37,30.22,5,1,12,0.01
2013-3-8,41,36,31,27,24,22,79,65,47,30.47,30.35,7,3,15,0.00
2013-3-9,47,37,29,33,28,23,91,72,48,30.51,30.32,4,1,8,0.00
2013-3-10,64,50,35,29,27,23,72,44,27,30.32,30.05,7,3,16,0.00
2013-3-11,55,54,50,41,31,27,60,42,36,30.07,29.74,9,4,21,0.00
2013-3-12,55,42,36,47,34,28,91,76,64,29.98,29.74,13,6,27,0.10
2013-3-13,40,34,25,30,25,18,84,70,54,30.02,29.90,14,7,26,0.01
2013-3-14,33,26,19,19,12,6,84,57,32,30.14,30.02,20,11,42,0.00
2013-3-15,39,32,26,32,23,14,91,71,55,30.14,29.80,14,6,29,0.02
2013-3-16,31,26,22,20,17,15,79,70,59,30.07,29.95,9,2,16,0.01
2013-3-17,29,25,22,23,16,8,89,70,46,30.44,30.07,6,2,16,0.00
2013-3-18,34,25,17,29,17,10,93,72,44,30.44,29.85,12,4,24,0.00
2013-3-19,37,32,27,33,27,20,92,81,61,29.91,29.78,19,5,33,0.12
2013-3-20,35,29,24,25,20,16,83,71,46,29.92,29.88,14,7,26,0.03
2013-3-21,32,27,21,25,18,12,83,69,44,29.91,29.80,13,6,25,0.02
2013-3-22,33,29,26,27,24,20,92,83,70,30.01,29.82,14,6,22,0.04
2013-3-23,40,34,29,28,25,21,87,70,53,30.09,29.98,14,7,24,0.04
2013-3-24,38,33,28,28,24,19,88,69,52,30.10,29.84,5,2,11,0.01
2013-3-25,40,35,32,29,26,24,81,70,57,29.84,29.70,7,2,13,0.00
2013-3-26,44,38,33,33,29,26,82,69,52,30.01,29.80,8,3,16,0.00
2013-3-27,47,38,33,35,30,26,94,74,51,30.13,29.99,10,6,25,0.02
2013-3-28,46,39,34,35,32,26,92,76,48,30.27,30.11,10,5,17,0.02
2013-3-29,51,42,37,34,31,26,84,67,40,30.28,30.20,11,4,20,0.00
2013-3-30,50,41,32,30,26,19,80,56,33,30.29,30.14,5,2,11,0.00
2013-3-31,58,45,37,43,30,-100,91,62,33,30.14,29.69,9,3,20,0.03
2013-4-1,45,37,28,40,26,14,92,68,38,30.02,29.63,17,8,37,0.06
2013-4-2,34,29,24,26,20,15,89,72,53,30.19,30.01,14,7,30,0.01
2013-4-3,37,31,27,22,17,11,70,55,35,30.46,30.19,13,7,27,0.01
2013-4-4,56,38,26,21,19,15,73,49,20,30.45,29.99,9,3,18,0.00
2013-4-5,45,39,31,30,23,14,70,52,36,30.23,29.96,14,6,26,0.00
2013-4-6,46,36,27,22,19,14,73,50,31,30.42,30.14,6,2,13,0.00
2013-4-7,71,55,43,45,32,19,67,42,32,30.14,29.76,21,7,37,0.00
2013-4-8,56,46,40,43,36,33,92,69,48,30.20,29.83,6,2,13,0.03
2013-4-9,56,48,42,51,43,39,96,82,67,30.18,29.83,12,4,27,0.60
2013-4-10,45,41,38,44,40,37,97,96,94,30.14,29.97,6,2,25,0.94
2013-4-11,39,34,32,38,31,25,95,87,64,30.24,30.06,8,2,18,0.23
2013-4-12,50,40,34,48,37,30,97,88,71,30.09,29.62,12,6,34,0.72
2013-4-13,46,42,40,37,34,30,81,72,56,30.01,29.84,14,8,33,0.01
2013-4-14,45,40,36,34,28,25,87,64,48,30.28,30.01,10,-12,25,0.00
2013-4-15,74,55,35,47,37,25,70,54,36,30.27,30.06,8,3,20,0.00
2013-4-16,65,58,45,58,49,32,94,73,59,30.31,30.03,13,5,27,0.09
2013-4-17,52,46,38,37,32,28,80,61,43,30.44,30.31,6,2,12,0.01
2013-4-18,77,61,44,57,47,31,73,61,45,30.33,29.77,12,5,23,0.00
2013-4-19,73,60,42,58,49,30,82,67,58,29.83,29.42,19,9,41,0.01
2013-4-20,43,39,34,33,26,19,84,60,48,30.49,29.80,16,9,35,0.01
2013-4-21,40,35,30,25,20,11,72,54,33,30.78,30.48,6,2,10,0.01
2013-4-22,58,46,32,29,24,16,66,44,28,30.71,30.42,9,3,19,0.00
2013-4-23,61,51,40,38,32,26,69,49,39,30.43,30.03,8,4,18,0.00
2013-4-24,68,54,39,55,43,33,89,66,49,30.04,29.63,14,5,36,0.06
2013-4-25,57,45,36,40,31,25,92,63,30,30.38,30.04,11,4,22,0.07
2013-4-26,51,45,38,40,33,25,91,64,40,30.55,30.38,7,3,16,0.07
2013-4-27,68,53,39,37,33,29,75,50,27,30.52,30.30,6,1,11,0.00
2013-4-28,75,60,51,49,37,-100,84,47,23,30.30,30.09,10,4,21,0.05
2013-4-29,64,57,50,51,49,46,90,74,58,30.12,30.05,8,4,19,0.13
2013-4-30,73,63,56,54,52,49,89,68,48,30.28,30.11,9,3,21,0.02
2013-5-1,77,67,58,51,43,33,75,46,22,30.40,30.28,7,2,15,0.00
2013-5-2,75,64,52,41,37,32,54,37,27,30.47,30.32,4,1,10,0.00
2013-5-3,77,67,54,46,42,36,63,41,29,30.37,30.27,6,1,16,0.00
2013-5-4,74,64,53,44,41,37,61,44,29,30.35,30.21,6,1,13,0.00
2013-5-5,73,64,51,45,42,39,73,47,34,30.26,30.15,4,1,10,0.00
2013-5-6,71,62,51,41,38,33,58,41,26,30.22,30.08,2,0,8,0.00
2013-5-7,75,66,56,52,50,40,78,57,43,30.18,30.07,3,0,8,0.00
2013-5-8,70,63,57,60,55,49,94,75,63,30.11,29.98,5,1,14,0.09
2013-5-9,67,61,56,60,57,55,97,88,74,30.01,29.92,3,0,11,0.37
2013-5-10,73,61,53,63,54,-100,95,84,64,30.01,29.78,6,1,20,0.23
2013-5-11,59,55,49,58,50,43,97,84,67,29.84,29.71,11,4,24,0.28
2013-5-12,51,45,39,45,35,-100,93,71,45,29.98,29.75,17,7,33,0.02
2013-5-13,50,43,36,35,31,28,79,65,45,30.19,29.98,12,6,29,0.02
2013-5-14,59,47,36,37,33,27,88,61,32,30.24,30.04,4,1,12,0.00
2013-5-15,81,60,46,59,45,33,91,59,38,30.04,29.57,17,4,37,0.07
2013-5-16,77,60,54,46,23,-100,63,43,23,30.05,29.78,14,5,30,0.01
2013-5-17,64,55,46,43,36,-100,77,57,33,30.29,30.05,2,0,6,0.00
2013-5-18,70,58,43,48,43,39,88,60,38,30.33,30.21,4,1,10,0.00
2013-5-19,80,68,58,62,56,47,82,68,50,30.21,30.03,4,1,12,0.00
2013-5-20,83,73,64,66,62,58,81,70,54,30.09,29.91,5,1,13,0.00
2013-5-21,85,71,62,71,64,57,94,77,59,29.96,29.78,6,1,29,0.08
2013-5-22,86,72,58,71,65,57,97,80,54,29.84,29.67,8,1,24,0.15
2013-5-23,78,68,45,64,58,43,93,73,50,29.94,29.74,10,3,25,0.10
2013-5-24,52,43,38,43,38,36,95,84,55,30.26,29.94,6,2,18,0.20
2013-5-25,58,50,43,39,35,32,79,58,39,30.29,30.20,10,4,23,0.01
2013-5-26,63,54,45,39,35,29,72,50,31,30.27,30.19,10,4,22,0.00
2013-5-27,67,58,45,45,37,30,75,48,26,30.34,30.20,6,1,13,0.00
2013-5-28,63,57,53,59,49,37,97,77,49,30.22,29.99,5,1,11,0.52
2013-5-29,82,71,59,68,62,58,98,77,51,30.05,29.95,18,4,29,0.88
2013-5-30,90,79,67,66,62,57,84,59,33,30.14,30.05,8,3,19,0.08
2013-5-31,92,81,71,68,64,60,79,58,35,30.10,29.95,8,2,20,0.00
2013-6-1,90,77,69,69,65,62,94,68,45,30.00,29.80,10,3,27,0.16
2013-6-2,77,70,58,68,61,-100,97,78,50,29.92,29.72,19,5,38,0.62
2013-6-3,64,57,51,52,44,40,80,62,42,30.07,29.92,8,4,18,0.01
2013-6-4,68,59,50,46,40,35,79,52,32,30.22,30.07,8,2,16,0.00
2013-6-5,67,59,54,53,43,34,73,55,39,30.28,30.15,4,1,11,0.00
2013-6-6,57,56,54,56,52,44,97,89,61,30.16,29.91,5,1,14,1.39
2013-6-7,61,58,55,59,56,54,98,97,91,29.91,29.85,2,0,6,0.26
2013-6-8,65,58,55,59,56,54,99,92,72,30.13,29.86,5,1,13,0.06
2013-6-9,72,65,56,58,54,51,86,69,49,30.25,30.12,4,1,12,0.01
2013-6-10,70,64,61,64,60,54,96,85,74,30.18,29.76,6,2,14,0.10
2013-6-11,67,64,60,64,61,54,98,89,74,29.88,29.68,12,3,22,0.06
2013-6-12,73,65,55,58,54,50,92,71,46,29.99,29.82,3,0,8,0.02
2013-6-13,67,61,56,59,56,54,96,87,69,29.84,29.57,9,1,17,1.02
2013-6-14,75,64,54,59,56,53,97,76,51,30.02,29.83,7,2,17,0.02
2013-6-15,76,67,55,57,50,41,78,57,29,30.10,29.99,8,3,17,0.00
2013-6-16,77,68,62,66,59,51,95,74,57,29.99,29.74,9,3,22,0.16
2013-6-17,78,70,63,63,60,56,90,70,51,29.97,29.86,8,2,20,0.01
2013-6-18,68,61,55,57,51,47,88,70,49,30.08,29.94,3,0,9,0.02
2013-6-19,67,60,54,51,44,35,82,59,33,30.25,30.08,2,0,8,0.00
2013-6-20,71,59,45,51,46,35,93,67,30,30.32,30.25,2,0,7,0.00
2013-6-22,86,81,75,72,68,63,88,68,50,30.16,30.04,7,2,18,0.02
2013-6-23,90,81,72,72,68,64,88,66,46,30.10,30.02,10,3,26,0.02
2013-6-24,88,80,73,69,66,62,78,62,44,30.06,29.96,11,5,22,0.00
2013-6-25,82,77,69,71,66,62,91,69,58,29.98,29.82,9,4,24,0.08
2013-6-26,85,76,69,71,67,64,92,74,55,29.86,29.81,6,3,17,0.14
2013-6-27,80,73,66,72,67,63,93,82,71,29.84,29.67,2,0,10,0.51
2013-6-28,66,64,61,65,63,60,97,96,94,29.67,29.56,3,0,9,0.79
2013-6-29,74,66,61,66,62,60,98,89,72,29.75,29.55,1,0,6,0.78
2013-6-30,77,69,62,66,63,60,95,81,67,29.98,29.74,2,0,8,0.02
2013-7-1,67,65,60,64,62,58,97,91,84,30.11,29.97,4,0,10,0.28
2013-7-2,74,66,60,68,62,58,97,90,79,30.15,30.07,2,0,6,0.21
2013-7-3,85,70,65,72,67,64,98,92,66,30.21,30.14,3,0,9,0.42
2013-7-4,87,76,69,73,70,67,98,84,52,30.22,30.14,6,1,13,0.43
2013-7-5,86,76,71,73,70,68,95,83,62,30.18,30.09,5,1,16,0.07
2013-7-6,88,77,70,69,67,62,87,71,43,30.19,30.06,5,2,10,0.01
2013-7-7,85,77,70,72,69,65,97,76,54,30.10,29.97,8,3,19,0.13
2013-7-8,85,74,71,73,67,-100,91,81,59,30.09,30.01,6,2,14,0.01
2013-7-9,85,75,70,73,70,67,96,85,61,30.09,29.94,5,0,16,0.21
2013-7-10,87,77,71,73,67,-100,97,77,60,29.95,29.75,10,4,25,0.20
2013-7-11,77,71,64,66,61,57,86,71,57,30.07,29.85,8,2,19,0.00
2013-7-12,75,66,63,67,63,60,95,89,72,30.20,30.07,0,0,3,0.00
2013-7-17,88,85,83,75,74,72,76,69,60,30.13,30.11,6,4,17,0.00
2013-7-18,89,82,76,77,74,71,90,76,61,30.14,29.97,6,2,16,0.30
2013-7-19,93,84,71,75,71,66,87,66,46,29.98,29.74,14,6,35,0.04
2013-7-20,82,74,68,69,63,-100,96,73,40,29.92,29.74,11,2,28,0.33
2013-7-21,74,70,66,63,60,56,82,70,59,30.06,29.93,2,0,8,0.01
2013-7-22,80,70,61,66,62,57,93,76,57,30.05,29.84,2,0,7,0.31
2013-7-23,86,74,67,70,66,59,97,78,46,29.84,29.65,11,2,21,0.47
2013-7-24,69,63,58,59,52,48,79,67,51,30.09,29.73,8,2,18,0.01
2013-7-25,73,64,52,56,52,49,92,67,45,30.19,30.10,2,0,8,0.00
2013-7-26,75,67,56,59,53,49,91,64,42,30.18,30.06,3,0,11,0.00
2013-7-27,80,70,59,67,61,54,95,74,52,30.07,29.87,3,0,14,0.08
2013-7-28,74,68,63,67,62,57,96,83,67,30.03,29.85,4,0,10,0.11
2013-7-29,73,65,58,58,55,51,89,72,48,30.17,30.03,9,3,18,0.02
2013-7-30,76,68,59,61,57,55,87,71,52,30.25,30.18,7,2,13,0.00
2013-7-31,81,70,60,67,60,56,92,72,45,30.21,29.98,3,0,10,0.00
2013-8-1,77,70,64,68,63,60,96,81,58,29.98,29.82,8,2,25,0.28
2013-8-2,76,68,61,64,61,55,94,80,54,29.96,29.88,10,1,22,0.55
2013-8-3,77,69,61,62,58,51,96,70,40,29.97,29.87,9,4,19,0.25
2013-8-4,71,66,59,59,54,51,88,67,51,30.10,29.97,12,4,22,0.00
2013-8-5,76,65,56,58,54,49,89,68,41,30.17,30.08,5,1,10,0.00
2013-8-6,80,68,56,62,56,51,90,69,38,30.12,30.04,4,0,10,0.00
2013-8-7,81,73,65,67,63,59,82,72,59,30.04,29.91,6,1,18,0.00
2013-8-8,83,74,67,71,68,63,96,82,63,30.00,29.94,7,0,16,0.15
2013-8-9,78,71,67,70,66,59,97,85,55,29.96,29.90,7,2,20,0.47
2013-8-10,74,68,63,61,55,48,88,64,46,30.14,29.96,8,2,17,0.01
2013-8-11,75,66,57,59,56,52,91,70,52,30.18,30.09,4,0,10,0.00
2013-8-12,79,70,63,63,59,56,82,70,48,30.10,29.91,5,0,12,0.00
2013-8-13,74,66,60,67,58,-100,97,79,57,29.91,29.79,10,3,25,0.34
2013-8-14,69,60,54,55,47,-100,92,69,47,30.13,29.89,10,5,23,0.02
2013-8-15,75,61,54,53,41,-100,84,60,43,30.19,30.11,9,4,20,0.00
2013-8-16,76,65,56,58,51,-100,85,66,46,30.25,30.16,7,1,11,0.00
2013-8-17,82,69,58,60,57,54,88,68,40,30.35,30.26,3,0,7,0.00
2013-8-18,81,70,60,62,57,-100,87,67,43,30.30,30.16,5,0,10,0.00
2013-8-19,82,69,62,66,50,-100,88,69,44,30.16,30.07,6,2,12,0.00
2013-8-20,85,74,64,63,59,-100,86,63,42,30.17,30.09,9,4,17,0.00
2013-8-21,87,76,65,64,62,59,82,63,42,30.20,30.06,8,2,16,0.00
2013-8-22,85,76,69,72,65,57,84,70,55,30.07,29.93,11,4,21,0.04
2013-8-23,71,67,60,61,57,54,85,71,58,30.26,30.02,4,1,10,0.04
2013-8-24,74,65,55,56,52,46,92,65,38,30.41,30.26,3,1,10,0.00
2013-8-25,84,70,54,58,53,-100,93,61,35,30.40,30.17,9,2,18,0.00
2013-8-26,78,71,67,70,65,58,95,84,57,30.22,29.96,8,4,24,0.34
2013-8-27,81,72,69,72,69,67,96,90,75,29.99,29.92,3,1,11,0.23
2013-8-28,79,76,71,71,70,68,94,82,77,29.99,29.91,3,1,11,0.07
2013-8-29,79,73,68,71,69,66,98,86,71,30.09,29.99,2,0,9,0.03
2013-8-30,86,75,66,69,66,63,94,75,48,30.06,29.80,6,2,13,0.00
2013-8-31,82,74,69,72,69,67,96,87,68,29.90,29.76,6,1,16,0.10
2013-9-1,78,71,68,70,66,-100,96,86,74,29.90,29.80,3,0,12,0.64
2013-9-2,85,72,66,72,67,57,98,85,63,29.83,29.71,11,2,20,0.70
2013-9-3,67,65,62,59,57,55,84,76,66,29.98,29.83,10,5,22,0.01
2013-9-4,79,68,58,64,56,49,87,67,35,30.04,29.98,11,5,26,0.00
2013-9-5,66,61,54,60,49,39,83,64,42,30.28,30.01,5,2,15,0.00
2013-9-6,71,59,46,53,46,42,88,65,40,30.35,30.15,5,1,14,0.00
2013-9-7,65,60,57,60,54,47,94,78,64,30.16,29.92,6,2,16,0.08
2013-9-8,65,61,51,64,49,-100,96,69,46,30.18,29.91,8,2,17,0.08
2013-9-9,78,62,46,61,52,44,92,71,46,30.23,30.02,6,1,16,0.05
2013-9-10,92,79,68,75,69,61,93,73,56,30.03,29.93,11,5,27,0.08
2013-9-11,93,83,76,74,72,65,82,69,47,30.06,29.92,9,4,19,0.06
2013-9-12,76,70,63,69,66,58,93,85,72,29.96,29.76,9,3,18,0.04
2013-9-13,63,55,51,59,52,46,95,89,81,30.07,29.79,6,1,15,0.19
2013-9-14,62,54,50,47,44,38,89,71,45,30.19,30.07,7,2,15,0.08
2013-9-15,69,56,48,52,44,-100,91,69,53,30.23,30.11,10,3,20,0.03
2013-9-16,54,51,47,52,48,42,95,88,71,30.45,30.13,5,1,13,0.09
2013-9-17,62,51,41,48,43,39,95,77,46,30.58,30.37,4,0,10,0.01
2013-9-18,56,48,46,45,43,41,88,84,67,30.38,30.17,2,0,10,0.00
2013-9-19,79,65,54,61,53,46,90,67,38,30.19,30.07,6,1,14,0.00
2013-9-20,83,71,60,65,60,55,93,71,51,30.07,29.83,6,1,14,0.00
2013-9-21,73,64,54,62,60,52,97,87,64,29.83,29.67,11,1,22,0.57
2013-9-22,55,52,51,52,44,-100,93,76,60,30.09,29.77,8,4,25,0.08
2013-9-23,58,53,49,44,42,40,76,68,55,30.22,30.08,5,1,14,0.00
2013-9-24,63,53,41,48,43,39,95,70,46,30.22,30.08,3,1,9,0.00
2013-9-25,67,56,44,53,46,42,93,72,48,30.09,30.03,5,1,9,0.00
2013-9-26,67,57,46,57,50,44,94,80,60,30.22,30.06,3,1,8,0.00
2013-9-27,63,57,49,55,52,47,94,85,71,30.33,30.22,4,0,9,0.00
2013-9-28,72,59,46,57,52,45,98,80,58,30.38,30.24,3,0,9,0.00
2013-9-29,77,62,50,55,50,-100,93,70,45,30.24,30.05,5,1,17,0.00
2013-9-30,76,65,58,61,56,50,80,72,57,30.07,29.99,3,0,11,0.00
2013-10-1,69,66,64,60,58,57,82,74,68,30.03,29.96,3,1,12,0.00
2013-10-2,78,69,62,63,59,50,86,72,41,30.14,29.96,8,4,21,0.00
2013-10-3,74,62,52,57,52,41,90,71,32,30.19,30.08,5,0,9,0.00
2013-10-4,63,61,59,62,59,53,97,92,77,30.13,30.05,1,0,6,0.25
2013-10-5,62,60,59,59,57,55,93,90,83,30.16,30.10,2,0,9,0.02
2013-10-6,79,68,60,72,64,57,98,89,74,30.11,29.79,4,1,14,0.37
2013-10-7,74,62,52,66,55,47,94,80,66,30.09,29.67,11,4,32,0.22
2013-10-8,60,54,47,49,46,43,90,76,58,30.43,30.09,5,1,17,0.01
2013-10-9,66,54,41,52,46,40,96,77,50,30.49,30.35,2,0,8,0.00
2013-10-10,63,53,42,50,45,40,94,76,51,30.37,30.24,3,0,8,0.00
2013-10-11,66,54,44,54,49,42,96,85,62,30.24,30.19,3,0,8,0.00
2013-10-12,74,58,43,53,45,38,97,67,29,30.27,30.20,4,0,10,0.00
2013-10-13,74,61,53,61,53,-100,94,77,59,30.34,30.26,5,1,14,0.07
2013-10-14,63,57,50,59,53,47,96,87,67,30.39,30.31,4,1,12,0.18
2013-10-15,68,56,43,56,50,42,97,84,62,30.36,30.02,3,0,11,0.01
2013-10-16,65,61,57,59,54,50,94,79,63,30.03,29.82,5,1,15,0.13
2013-10-17,65,57,51,54,50,47,95,78,55,29.95,29.73,6,2,16,0.25
2013-10-18,60,54,50,53,44,37,95,72,44,29.97,29.77,12,5,25,0.25
2013-10-19,63,55,45,47,43,41,89,66,47,29.97,29.69,10,3,23,0.03
2013-10-20,55,48,42,45,39,-100,91,75,55,30.07,29.80,10,4,23,0.03
2013-10-21,67,56,45,49,40,37,91,60,33,30.06,29.86,9,2,23,0.00
2013-10-22,54,47,42,49,37,27,95,68,42,29.92,29.80,15,6,30,0.16
2013-10-23,46,42,37,39,35,29,87,76,62,29.91,29.77,9,2,22,0.02
2013-10-24,49,40,34,37,33,30,93,77,48,30.09,29.86,14,6,32,0.10
2013-10-25,51,44,39,39,37,34,91,76,56,30.27,30.09,10,4,20,0.10
2013-10-26,46,43,39,37,32,28,89,67,50,30.21,29.87,13,5,33,0.01
2013-10-27,49,42,38,38,34,-100,88,76,57,30.14,29.88,8,4,19,0.00
2013-10-28,48,42,35,40,30,-100,78,66,49,30.47,30.11,6,2,17,0.00
2013-10-29,45,37,28,31,27,23,89,69,52,30.57,30.40,3,0,9,0.00
2013-10-30,55,44,37,42,38,31,95,82,56,30.40,30.19,2,0,7,0.06
2013-10-31,66,54,42,59,50,38,97,86,70,30.19,29.46,4,1,19,0.40
2013-11-1,64,58,49,59,50,43,93,75,55,29.74,29.25,24,9,54,0.26
2013-11-2,51,46,38,47,42,32,94,89,77,30.07,29.67,7,2,17,0.33
2013-11-3,38,34,32,32,24,-100,79,67,55,30.62,30.07,5,2,15,0.06
2013-11-4,42,35,25,26,22,16,91,61,36,30.76,30.55,6,1,13,0.00
2013-11-5,58,46,35,36,29,20,63,51,41,30.56,30.41,6,1,16,0.00
2013-11-6,66,56,47,54,43,34,87,63,52,30.41,29.85,6,2,19,0.01
2013-11-7,58,45,39,55,38,29,92,78,55,30.05,29.85,12,6,23,0.15
2013-11-8,43,39,36,33,30,25,84,71,51,30.31,30.02,14,6,28,0.01
2013-11-9,49,42,37,42,30,-100,88,65,50,30.31,29.85,8,3,19,0.03
2013-11-10,50,44,40,43,36,31,86,72,62,30.22,29.85,17,8,37,0.02
2013-11-11,46,38,30,37,32,27,94,79,56,30.23,29.99,13,5,29,0.13
2013-11-12,32,28,26,27,22,19,88,77,63,30.47,30.18,13,6,23,0.08
2013-11-13,38,30,22,27,21,14,78,67,51,30.52,30.16,12,6,24,0.02
2013-11-14,51,42,36,29,20,16,61,43,27,30.19,30.08,15,8,30,0.01
2013-11-15,52,46,41,26,22,19,44,39,33,30.19,30.12,6,2,18,0.00
2013-11-16,59,50,44,40,31,-100,66,50,37,30.32,30.12,6,2,13,0.00
2013-11-17,61,56,50,54,49,40,92,79,66,30.12,29.43,15,5,30,0.14
2013-11-18,55,47,36,49,36,27,87,66,57,29.95,29.44,22,13,44,0.06
2013-11-19,37,35,30,30,26,21,78,69,58,30.54,29.95,14,6,30,0.00
2013-11-20,38,31,25,23,20,18,84,65,45,30.70,30.54,4,1,11,0.00
2013-11-21,45,39,30,37,25,15,85,58,46,30.57,30.35,8,3,18,0.01
2013-11-22,47,42,34,46,40,28,96,92,79,30.34,30.06,17,3,33,0.26
2013-11-23,37,29,19,28,20,-100,91,74,51,30.27,30.08,18,10,33,0.01
2013-11-24,25,21,17,17,14,10,89,74,59,30.50,30.25,15,8,28,0.00
2013-11-25,35,28,19,19,14,11,83,59,36,30.50,30.20,12,4,25,0.00
2013-11-26,37,34,32,31,28,21,96,78,58,30.24,29.92,12,2,25,0.01
2013-11-27,34,31,23,32,28,17,97,90,76,29.96,29.70,14,6,28,0.13
2013-11-28,30,24,20,20,17,14,88,73,57,30.53,29.96,13,4,22,0.06
2013-11-29,30,24,18,22,17,13,92,73,54,30.84,30.53,7,1,12,0.05
2013-11-30,31,23,11,23,15,-100,90,74,57,30.84,30.30,7,3,14,0.01
2013-12-1,40,35,31,34,29,23,95,80,65,30.31,30.05,4,1,12,0.25
2013-12-2,40,37,34,34,33,30,95,86,73,30.06,29.94,3,0,10,0.10
2013-12-3,43,35,31,31,29,28,91,80,55,30.11,29.99,5,1,9,0.01
2013-12-4,48,38,32,39,34,28,94,85,70,30.13,29.99,4,1,10,0.00
2013-12-5,63,51,42,54,44,32,87,78,58,30.07,29.80,11,5,29,0.00
2013-12-6,41,35,32,34,28,23,92,77,66,30.33,30.07,9,4,17,0.12
2013-12-7,34,29,26,26,18,-100,86,67,48,30.66,30.32,12,6,24,0.01
2013-12-8,29,26,21,23,15,12,89,64,52,30.68,30.32,9,3,20,0.00
2013-12-9,40,34,26,36,29,22,93,82,67,30.33,29.93,17,7,38,0.06
2013-12-10,34,26,20,26,16,10,90,67,54,30.14,30.00,17,6,31,0.01
2013-12-11,25,22,18,20,14,9,88,70,57,30.37,30.15,15,6,27,0.01
2013-12-12,20,16,13,15,10,6,88,77,58,30.42,30.13,14,6,31,0.01
2013-12-13,24,19,16,20,13,7,90,75,64,30.51,30.12,18,6,35,0.00
2013-12-14,22,13,8,20,8,-100,92,84,72,30.57,29.88,5,2,12,0.00
2013-12-15,24,21,17,23,18,12,94,88,71,29.93,29.71,14,4,27,0.00
2013-12-16,22,17,8,16,12,4,89,81,69,30.29,29.93,13,5,29,0.02
2013-12-17,27,19,4,25,16,1,91,88,81,30.28,30.01,8,2,20,0.02
2013-12-18,32,28,25,25,22,20,92,78,66,30.16,30.02,11,4,23,0.00
2013-12-19,43,35,27,34,27,19,84,71,58,30.14,29.98,9,3,29,0.15
2013-12-20,44,39,35,42,37,33,97,92,79,30.10,29.87,7,1,16,0.12
2013-12-21,55,38,31,51,35,-100,98,94,81,29.98,29.79,8,2,17,0.44
2013-12-22,44,35,31,42,34,30,98,95,86,30.06,29.70,8,2,24,0.64
2013-12-23,41,36,27,37,32,23,93,87,81,30.35,30.03,9,4,23,0.01
2013-12-24,27,21,11,23,18,8,92,88,82,30.60,30.30,13,3,21,0.01
2013-12-25,24,15,8,16,9,5,89,79,68,30.64,30.33,8,2,13,0.00
2013-12-26,31,28,24,28,21,15,90,76,69,30.37,30.16,10,3,23,0.02
2013-12-27,33,28,22,28,22,14,87,80,71,30.38,30.18,8,3,19,0.01
2013-12-28,44,38,32,35,30,-100,90,75,62,30.19,30.02,10,4,29,0.02
2013-12-29,46,41,31,40,33,26,92,75,52,30.02,29.69,14,4,28,0.03
2013-12-30,30,19,15,27,14,10,89,81,73,30.33,29.82,14,6,24,0.01
2013-12-31,25,18,15,19,11,4,82,72,58,30.34,30.07,17,5,34,0.00
2014-1-1,22,17,14,15,10,7,89,75,60,30.51,30.34,10,3,20,0.00
2014-1-2,14,12,7,12,9,3,90,89,87,30.42,30.11,11,5,27,0.00